AAL880 KDFW-KILM

Flight info

Callsign AAL880
Flight time 2h 9m
Altitude 35000
Route TRYTN4 LOOSE XESSS RUSSA JAGIR DAREE KELLN FLO JAYDB
Aircraft A320/M-SDE3FGHIRWY/LB1

Departure

Time 2026-04-26 20:58
Airport Dallas Fort Worth International Airport (KDFW)

Arrival

Time 2026-04-26 23:07
Airport Wilmington International Airport (KILM)
Time Latitude Longitude Altitude Speed Heading
2026-04-26 20:28 32.90002 -97.03646 587 ft 0 kts 202°
2026-04-26 20:45 32.90003 -97.03646 596 ft 2 kts 202°
2026-04-26 20:45 32.90027 -97.03635 587 ft 4 kts 203°
2026-04-26 20:45 32.90047 -97.03623 587 ft 4 kts 210°
2026-04-26 20:45 32.90064 -97.03605 587 ft 4 kts 265°
2026-04-26 20:46 32.90056 -97.03584 587 ft 4 kts 326°
2026-04-26 20:46 32.90033 -97.03566 587 ft 3 kts 326°
2026-04-26 20:46 32.90031 -97.03564 587 ft 0 kts 326°
2026-04-26 20:49 32.90032 -97.03565 587 ft 1 kts 326°
2026-04-26 20:49 32.90063 -97.03580 587 ft 7 kts 358°
2026-04-26 20:49 32.90096 -97.03548 587 ft 6 kts 58°
2026-04-26 20:49 32.90108 -97.03510 587 ft 4 kts 76°
2026-04-26 20:50 32.90110 -97.03481 587 ft 3 kts 88°
2026-04-26 20:50 32.90110 -97.03462 587 ft 2 kts 90°
2026-04-26 20:50 32.90110 -97.03453 587 ft 1 kts 90°
2026-04-26 20:50 32.90110 -97.03430 587 ft 5 kts 90°
2026-04-26 20:51 32.90110 -97.03371 586 ft 9 kts 91°
2026-04-26 20:51 32.90149 -97.03313 585 ft 10 kts
2026-04-26 20:51 32.90222 -97.03312 585 ft 11 kts
2026-04-26 20:51 32.90301 -97.03311 585 ft 12 kts 359°
2026-04-26 20:52 32.90384 -97.03312 585 ft 12 kts
2026-04-26 20:52 32.90468 -97.03311 585 ft 12 kts
2026-04-26 20:52 32.90556 -97.03311 585 ft 12 kts 359°
2026-04-26 20:52 32.90639 -97.03311 585 ft 12 kts
2026-04-26 20:53 32.90721 -97.03310 585 ft 12 kts
2026-04-26 20:53 32.90805 -97.03310 586 ft 13 kts
2026-04-26 20:53 32.90898 -97.03309 585 ft 14 kts
2026-04-26 20:53 32.91007 -97.03290 581 ft 17 kts 24°
2026-04-26 20:54 32.91122 -97.03273 580 ft 16 kts
2026-04-26 20:54 32.91222 -97.03273 581 ft 13 kts
2026-04-26 20:54 32.91303 -97.03272 581 ft 11 kts
2026-04-26 20:54 32.91378 -97.03272 582 ft 11 kts
2026-04-26 20:55 32.91458 -97.03272 578 ft 12 kts
2026-04-26 20:55 32.91539 -97.03267 575 ft 12 kts 20°
2026-04-26 20:55 32.91559 -97.03189 578 ft 10 kts 91°
2026-04-26 20:55 32.91559 -97.03123 575 ft 6 kts 90°
2026-04-26 20:56 32.91559 -97.03047 575 ft 12 kts 90°
2026-04-26 20:56 32.91531 -97.02989 579 ft 7 kts 165°
2026-04-26 20:56 32.91491 -97.02988 580 ft 1 kts 180°
2026-04-26 20:57 32.91489 -97.02988 580 ft 2 kts 180°
2026-04-26 20:57 32.91346 -97.02989 576 ft 40 kts 180°
2026-04-26 20:57 32.90862 -97.02992 575 ft 98 kts 180°
2026-04-26 20:57 32.90004 -97.02997 578 ft 146 kts 180°
2026-04-26 20:58 32.88885 -97.03005 830 ft 165 kts 182°
2026-04-26 20:58 32.87740 -97.03000 1473 ft 167 kts 177°
2026-04-26 20:58 32.86557 -97.02962 2104 ft 170 kts 178°
2026-04-26 20:58 32.85352 -97.02904 2527 ft 182 kts 176°
2026-04-26 20:59 32.84067 -97.02478 2767 ft 204 kts 157°
2026-04-26 20:59 32.82684 -97.01761 3042 ft 229 kts 158°
2026-04-26 20:59 32.81156 -97.00979 3447 ft 247 kts 159°
2026-04-26 20:59 32.79545 -97.00157 4168 ft 255 kts 156°
2026-04-26 21:00 32.78540 -96.99398 4657 ft 263 kts 142°
2026-04-26 21:00 32.77433 -96.97635 5384 ft 275 kts 117°
2026-04-26 21:00 32.77091 -96.95371 6059 ft 288 kts 87°
2026-04-26 21:00 32.77499 -96.93000 6688 ft 297 kts 78°
2026-04-26 21:01 32.78008 -96.90591 7489 ft 303 kts 78°
2026-04-26 21:01 32.78531 -96.88145 8270 ft 307 kts 78°
2026-04-26 21:01 32.79055 -96.85663 8947 ft 312 kts 78°
2026-04-26 21:01 32.79580 -96.83145 9586 ft 317 kts 77°
2026-04-26 21:02 32.80130 -96.80489 10189 ft 324 kts 77°
2026-04-26 21:02 32.80664 -96.77890 10382 ft 345 kts 77°
2026-04-26 21:02 32.81274 -96.74906 10514 ft 369 kts 77°
2026-04-26 21:02 32.81890 -96.71886 10855 ft 381 kts 77°
2026-04-26 21:03 32.82514 -96.68837 11406 ft 386 kts 76°
2026-04-26 21:03 32.83152 -96.65722 12019 ft 390 kts 76°
2026-04-26 21:03 32.83798 -96.62574 12620 ft 394 kts 76°
2026-04-26 21:03 32.84451 -96.59392 13248 ft 398 kts 75°
2026-04-26 21:04 32.85109 -96.56174 13866 ft 403 kts 75°
2026-04-26 21:04 32.85771 -96.52916 14399 ft 407 kts 75°
2026-04-26 21:04 32.86437 -96.49632 14968 ft 410 kts 75°
2026-04-26 21:04 32.87109 -96.46319 15514 ft 414 kts 75°
2026-04-26 21:05 32.87795 -96.42923 16091 ft 418 kts 75°
2026-04-26 21:05 32.88465 -96.39591 16622 ft 422 kts 75°
2026-04-26 21:05 32.89153 -96.36180 17137 ft 426 kts 75°
2026-04-26 21:05 32.89924 -96.32764 17662 ft 429 kts 69°
2026-04-26 21:06 32.90992 -96.29440 18166 ft 432 kts 66°
2026-04-26 21:06 32.92100 -96.26048 18636 ft 436 kts 66°
2026-04-26 21:06 32.93183 -96.22719 19125 ft 438 kts 66°
2026-04-26 21:06 32.94299 -96.19287 19638 ft 440 kts 66°
2026-04-26 21:07 32.95405 -96.15877 20147 ft 443 kts 66°
2026-04-26 21:07 32.96498 -96.12492 20643 ft 445 kts 66°
2026-04-26 21:07 32.97608 -96.09050 21128 ft 447 kts 66°
2026-04-26 21:07 32.98725 -96.05584 21637 ft 449 kts 66°
2026-04-26 21:08 32.99847 -96.02109 22113 ft 451 kts 66°
2026-04-26 21:08 33.00978 -95.98603 22572 ft 453 kts 66°
2026-04-26 21:08 33.02107 -95.95092 23052 ft 455 kts 66°
2026-04-26 21:08 33.03241 -95.91565 23491 ft 456 kts 66°
2026-04-26 21:09 33.04377 -95.88025 23829 ft 459 kts 66°
2026-04-26 21:09 33.05518 -95.84463 24149 ft 462 kts 66°
2026-04-26 21:09 33.06671 -95.80869 24467 ft 465 kts 66°
2026-04-26 21:09 33.07836 -95.77252 24773 ft 468 kts 66°
2026-04-26 21:10 33.09005 -95.73618 25060 ft 471 kts 66°
2026-04-26 21:10 33.10180 -95.69953 25359 ft 474 kts 66°
2026-04-26 21:10 33.11362 -95.66260 25624 ft 478 kts 66°
2026-04-26 21:10 33.12548 -95.62539 25911 ft 481 kts 66°
2026-04-26 21:11 33.13739 -95.58803 26217 ft 484 kts 66°
2026-04-26 21:11 33.14941 -95.55037 26493 ft 487 kts 66°
2026-04-26 21:11 33.16149 -95.51252 26764 ft 490 kts 66°
2026-04-26 21:11 33.17362 -95.47445 27031 ft 492 kts 66°
2026-04-26 21:12 33.18579 -95.43614 27291 ft 495 kts 66°
2026-04-26 21:12 33.19801 -95.39758 27544 ft 498 kts 66°
2026-04-26 21:12 33.21016 -95.35932 27790 ft 500 kts 66°
2026-04-26 21:12 33.22253 -95.32034 28034 ft 503 kts 66°
2026-04-26 21:13 33.23496 -95.28102 28217 ft 508 kts 66°
2026-04-26 21:13 33.24743 -95.24145 28414 ft 511 kts 66°
2026-04-26 21:13 33.25997 -95.20163 28647 ft 513 kts 66°
2026-04-26 21:13 33.27256 -95.16162 28870 ft 516 kts 66°
2026-04-26 21:14 33.28523 -95.12129 29090 ft 518 kts 66°
2026-04-26 21:14 33.29794 -95.08081 29302 ft 521 kts 66°
2026-04-26 21:14 33.31066 -95.04022 29505 ft 523 kts 66°
2026-04-26 21:14 33.32345 -94.99942 29706 ft 525 kts 66°
2026-04-26 21:15 33.33628 -94.95847 29922 ft 526 kts 66°
2026-04-26 21:15 33.34912 -94.91744 30200 ft 525 kts 66°
2026-04-26 21:15 33.36186 -94.87659 30505 ft 523 kts 66°
2026-04-26 21:15 33.37453 -94.83589 30799 ft 522 kts 66°
2026-04-26 21:16 33.38716 -94.79523 31085 ft 520 kts 66°
2026-04-26 21:16 33.39975 -94.75468 31379 ft 519 kts 66°
2026-04-26 21:16 33.41228 -94.71425 31676 ft 518 kts 66°
2026-04-26 21:16 33.42477 -94.67391 31963 ft 516 kts 65°
2026-04-26 21:17 33.43726 -94.63357 32256 ft 515 kts 65°
2026-04-26 21:17 33.44966 -94.59344 32548 ft 514 kts 65°
2026-04-26 21:17 33.46205 -94.55331 32842 ft 512 kts 65°
2026-04-26 21:17 33.47436 -94.51345 33172 ft 509 kts 65°
2026-04-26 21:18 33.48645 -94.47423 33476 ft 508 kts 65°
2026-04-26 21:18 33.49865 -94.43461 33775 ft 506 kts 65°
2026-04-26 21:18 33.51078 -94.39509 34030 ft 505 kts 65°
2026-04-26 21:18 33.52287 -94.35558 34239 ft 505 kts 65°
2026-04-26 21:19 33.53494 -94.31606 34431 ft 505 kts 65°
2026-04-26 21:19 33.54706 -94.27647 34619 ft 505 kts 65°
2026-04-26 21:19 33.55914 -94.23689 34786 ft 506 kts 65°
2026-04-26 21:20 33.58298 -94.15737 34843 ft 506 kts 65°
2026-04-26 21:20 33.60641 -94.07791 34846 ft 505 kts 66°
2026-04-26 21:21 33.62990 -93.99867 34844 ft 503 kts 65°
2026-04-26 21:21 33.65336 -93.91957 34845 ft 503 kts 65°
2026-04-26 21:22 33.67674 -93.84049 34844 ft 503 kts 66°
2026-04-26 21:22 33.70003 -93.76137 34858 ft 501 kts 65°
2026-04-26 21:23 33.73471 -93.64315 34868 ft 499 kts 66°
2026-04-26 21:23 33.75771 -93.56444 34864 ft 498 kts 66°
2026-04-26 21:24 33.78050 -93.48628 34870 ft 498 kts 66°
2026-04-26 21:24 33.80356 -93.40722 34867 ft 498 kts 66°
2026-04-26 21:25 33.82639 -93.32867 34872 ft 497 kts 66°
2026-04-26 21:25 33.84893 -93.25056 34874 ft 497 kts 66°
2026-04-26 21:26 33.87155 -93.17195 34878 ft 497 kts 66°
2026-04-26 21:26 33.89398 -93.09337 34878 ft 498 kts 69°
2026-04-26 21:27 33.90866 -93.01143 34877 ft 502 kts 75°
2026-04-26 21:27 33.92195 -92.92891 34899 ft 501 kts 75°
2026-04-26 21:28 33.93521 -92.84648 34892 ft 501 kts 75°
2026-04-26 21:28 33.94852 -92.76407 34878 ft 501 kts 75°
2026-04-26 21:29 33.96167 -92.68218 34873 ft 501 kts 75°
2026-04-26 21:29 33.97475 -92.59965 34879 ft 502 kts 76°
2026-04-26 21:30 33.98786 -92.51704 34885 ft 502 kts 75°
2026-04-26 21:30 33.99888 -92.44781 34878 ft 502 kts 76°
2026-04-26 21:31 34.01406 -92.35158 34883 ft 502 kts 76°
2026-04-26 21:31 34.02698 -92.26884 34902 ft 502 kts 76°
2026-04-26 21:32 34.03987 -92.18604 34902 ft 503 kts 76°
2026-04-26 21:32 34.05272 -92.10315 34904 ft 503 kts 76°
2026-04-26 21:33 34.06555 -92.02015 34909 ft 503 kts 76°
2026-04-26 21:33 34.07822 -91.93775 34911 ft 503 kts 76°
2026-04-26 21:34 34.09093 -91.85466 34891 ft 503 kts 76°
2026-04-26 21:34 34.10358 -91.77167 34901 ft 503 kts 77°
2026-04-26 21:35 34.11617 -91.68877 34905 ft 503 kts 77°
2026-04-26 21:35 34.12873 -91.60563 34908 ft 503 kts 77°
2026-04-26 21:36 34.13910 -91.53670 34910 ft 502 kts 77°
2026-04-26 21:36 34.15365 -91.43966 34917 ft 502 kts 77°
2026-04-26 21:37 34.16593 -91.35674 34924 ft 501 kts 77°
2026-04-26 21:37 34.17811 -91.27384 34921 ft 501 kts 77°
2026-04-26 21:38 34.19035 -91.19094 34919 ft 501 kts 77°
2026-04-26 21:38 34.20256 -91.10815 34921 ft 501 kts 77°
2026-04-26 21:39 34.21260 -91.03933 34933 ft 500 kts 77°
2026-04-26 21:39 34.22655 -90.94299 34926 ft 500 kts 77°
2026-04-26 21:40 34.23850 -90.86029 34923 ft 500 kts 77°
2026-04-26 21:40 34.24845 -90.79089 34920 ft 499 kts 77°
2026-04-26 21:41 34.26029 -90.70816 34924 ft 499 kts 78°
2026-04-26 21:41 34.27212 -90.62542 34917 ft 500 kts 78°
2026-04-26 21:42 34.28390 -90.54257 34912 ft 500 kts 78°
2026-04-26 21:42 34.29553 -90.46024 34911 ft 500 kts 78°
2026-04-26 21:43 34.30711 -90.37735 34916 ft 500 kts 78°
2026-04-26 21:43 34.31864 -90.29435 34909 ft 500 kts 78°
2026-04-26 21:44 34.33015 -90.21146 34903 ft 500 kts 78°
2026-04-26 21:44 34.34168 -90.12843 34900 ft 500 kts 78°
2026-04-26 21:45 34.35079 -90.04496 34896 ft 501 kts 82°
2026-04-26 21:45 34.35637 -89.96084 34920 ft 502 kts 84°
2026-04-26 21:46 34.36140 -89.87662 34912 ft 502 kts 83°
2026-04-26 21:46 34.36740 -89.79235 34910 ft 502 kts 82°
2026-04-26 21:47 34.37385 -89.70830 34937 ft 502 kts 82°
2026-04-26 21:47 34.38020 -89.62408 34946 ft 502 kts 83°
2026-04-26 21:48 34.38626 -89.53985 34945 ft 502 kts 83°
2026-04-26 21:48 34.39213 -89.45557 34945 ft 502 kts 83°
2026-04-26 21:49 34.39795 -89.37190 34939 ft 502 kts 83°
2026-04-26 21:49 34.40386 -89.28705 34930 ft 502 kts 83°
2026-04-26 21:50 34.40959 -89.20324 34929 ft 503 kts 83°
2026-04-26 21:50 34.41532 -89.11893 34917 ft 502 kts 83°
2026-04-26 21:51 34.42108 -89.03461 34927 ft 502 kts 83°
2026-04-26 21:51 34.42670 -88.95021 34930 ft 502 kts 83°
2026-04-26 21:52 34.43220 -88.86579 34937 ft 502 kts 83°
2026-04-26 21:52 34.43768 -88.78141 34944 ft 502 kts 83°
2026-04-26 21:53 34.44319 -88.69699 34942 ft 502 kts 83°
2026-04-26 21:53 34.44861 -88.61252 34939 ft 502 kts 83°
2026-04-26 21:54 34.45394 -88.52819 34927 ft 502 kts 83°
2026-04-26 21:54 34.45927 -88.44377 34933 ft 502 kts 83°
2026-04-26 21:55 34.46450 -88.35938 34933 ft 502 kts 83°
2026-04-26 21:55 34.46963 -88.27549 34941 ft 502 kts 83°
2026-04-26 21:56 34.47475 -88.19105 34929 ft 502 kts 83°
2026-04-26 21:56 34.47980 -88.10654 34923 ft 503 kts 83°
2026-04-26 21:57 34.48475 -88.02199 34929 ft 503 kts 83°
2026-04-26 21:57 34.48956 -87.93750 34924 ft 503 kts 83°
2026-04-26 21:58 34.49430 -87.85290 34926 ft 503 kts 83°
2026-04-26 21:58 34.49915 -87.76834 34930 ft 503 kts 83°
2026-04-26 21:59 34.50402 -87.68378 34941 ft 503 kts 83°
2026-04-26 21:59 34.50874 -87.59914 34944 ft 503 kts 83°
2026-04-26 22:00 34.51342 -87.51442 34939 ft 503 kts 83°
2026-04-26 22:00 34.51794 -87.42976 34943 ft 503 kts 83°
2026-04-26 22:01 34.52243 -87.34504 34949 ft 503 kts 83°
2026-04-26 22:01 34.52704 -87.26035 34949 ft 503 kts 82°
2026-04-26 22:02 34.53088 -87.18999 34952 ft 503 kts 82°
2026-04-26 22:02 34.53601 -87.09105 34964 ft 503 kts 83°
2026-04-26 22:03 34.54025 -87.00642 34964 ft 503 kts 83°
2026-04-26 22:03 34.54444 -86.92175 34981 ft 502 kts 82°
2026-04-26 22:04 34.54942 -86.83771 34978 ft 501 kts 81°
2026-04-26 22:04 34.55506 -86.75335 34977 ft 501 kts 81°
2026-04-26 22:05 34.56052 -86.66903 34973 ft 501 kts 82°
2026-04-26 22:05 34.56563 -86.58450 34955 ft 501 kts 82°
2026-04-26 22:06 34.57061 -86.50053 34964 ft 501 kts 82°
2026-04-26 22:06 34.57562 -86.41606 34959 ft 501 kts 82°
2026-04-26 22:07 34.58058 -86.33152 34959 ft 501 kts 82°
2026-04-26 22:07 34.58551 -86.24699 34962 ft 502 kts 82°
2026-04-26 22:08 34.59034 -86.16249 34981 ft 502 kts 82°
2026-04-26 22:08 34.59508 -86.07785 34979 ft 502 kts 82°
2026-04-26 22:09 34.59975 -85.99391 34976 ft 502 kts 82°
2026-04-26 22:09 34.60448 -85.90933 34972 ft 501 kts 82°
2026-04-26 22:10 34.60912 -85.82475 34977 ft 502 kts 82°
2026-04-26 22:10 34.61354 -85.74025 34977 ft 502 kts 82°
2026-04-26 22:11 34.61807 -85.65561 34984 ft 502 kts 82°
2026-04-26 22:11 34.62260 -85.57109 34988 ft 502 kts 82°
2026-04-26 22:12 34.62698 -85.48641 34986 ft 502 kts 82°
2026-04-26 22:12 34.63132 -85.40180 34985 ft 502 kts 82°
2026-04-26 22:13 34.63560 -85.31715 34981 ft 502 kts 82°
2026-04-26 22:13 34.63974 -85.23300 34973 ft 502 kts 82°
2026-04-26 22:14 34.64383 -85.14825 34998 ft 502 kts 82°
2026-04-26 22:14 34.64795 -85.06364 34995 ft 502 kts 82°
2026-04-26 22:15 34.65122 -84.97880 35015 ft 504 kts 84°
2026-04-26 22:15 34.65024 -84.89330 35006 ft 506 kts 87°
2026-04-26 22:16 34.64738 -84.80783 34999 ft 506 kts 87°
2026-04-26 22:16 34.64512 -84.72285 35000 ft 506 kts 86°
2026-04-26 22:17 34.64366 -84.63737 34992 ft 505 kts 85°
2026-04-26 22:17 34.64233 -84.55210 34980 ft 505 kts 85°
2026-04-26 22:18 34.64064 -84.46669 34974 ft 505 kts 86°
2026-04-26 22:18 34.63878 -84.38125 34969 ft 505 kts 86°
2026-04-26 22:19 34.63691 -84.29658 34974 ft 505 kts 86°
2026-04-26 22:19 34.63500 -84.21126 35001 ft 505 kts 85°
2026-04-26 22:20 34.63339 -84.14044 35004 ft 504 kts 85°
2026-04-26 22:20 34.63109 -84.04073 35007 ft 504 kts 85°
2026-04-26 22:21 34.62905 -83.95617 35002 ft 504 kts 86°
2026-04-26 22:21 34.62689 -83.87099 35016 ft 504 kts 85°
2026-04-26 22:22 34.62370 -83.78584 35009 ft 505 kts 88°
2026-04-26 22:22 34.61869 -83.70066 35015 ft 505 kts 88°
2026-04-26 22:23 34.61346 -83.61567 35017 ft 505 kts 88°
2026-04-26 22:23 34.60946 -83.54489 35016 ft 504 kts 88°
2026-04-26 22:24 34.60484 -83.45986 35028 ft 504 kts 88°
2026-04-26 22:24 34.60017 -83.37500 35034 ft 504 kts 88°
2026-04-26 22:25 34.59535 -83.29003 35026 ft 504 kts 88°
2026-04-26 22:25 34.59046 -83.20523 35021 ft 503 kts 88°
2026-04-26 22:26 34.58543 -83.12094 35026 ft 503 kts 88°
2026-04-26 22:26 34.58037 -83.03563 35005 ft 503 kts 88°
2026-04-26 22:27 34.57535 -82.95093 35005 ft 503 kts 88°
2026-04-26 22:27 34.57027 -82.86626 35005 ft 503 kts 88°
2026-04-26 22:28 34.56515 -82.78214 35006 ft 503 kts 88°
2026-04-26 22:28 34.55989 -82.69740 35024 ft 503 kts 89°
2026-04-26 22:29 34.55449 -82.61271 35020 ft 503 kts 89°
2026-04-26 22:29 34.54897 -82.52825 35016 ft 502 kts 89°
2026-04-26 22:30 34.54353 -82.44381 35016 ft 502 kts 89°
2026-04-26 22:30 34.53809 -82.35935 35030 ft 501 kts 90°
2026-04-26 22:31 34.53262 -82.27526 35029 ft 499 kts 90°
2026-04-26 22:31 34.52711 -82.19150 35034 ft 497 kts 90°
2026-04-26 22:32 34.52042 -82.10789 35034 ft 498 kts 92°
2026-04-26 22:32 34.51114 -82.02465 35033 ft 498 kts 94°
2026-04-26 22:33 34.49665 -81.90037 35026 ft 497 kts 93°
2026-04-26 22:34 34.48770 -81.81730 35026 ft 497 kts 93°
2026-04-26 22:34 34.47883 -81.73426 35017 ft 497 kts 93°
2026-04-26 22:35 34.46977 -81.65118 35023 ft 497 kts 94°
2026-04-26 22:35 34.46056 -81.56815 35012 ft 497 kts 94°
2026-04-26 22:36 34.45124 -81.48519 35010 ft 496 kts 94°
2026-04-26 22:36 34.44198 -81.40293 35018 ft 496 kts 94°
2026-04-26 22:37 34.43273 -81.32003 35028 ft 496 kts 94°
2026-04-26 22:37 34.42337 -81.23716 35053 ft 496 kts 94°
2026-04-26 22:38 34.41391 -81.15430 35030 ft 497 kts 94°
2026-04-26 22:38 34.40429 -81.07147 35036 ft 497 kts 94°
2026-04-26 22:39 34.39450 -80.98860 35034 ft 497 kts 94°
2026-04-26 22:39 34.38487 -80.90573 35052 ft 497 kts 95°
2026-04-26 22:39 34.38005 -80.86420 34859 ft 499 kts 95°
2026-04-26 22:40 34.37518 -80.82264 34488 ft 498 kts 95°
2026-04-26 22:40 34.37030 -80.78111 34249 ft 499 kts 95°
2026-04-26 22:40 34.36536 -80.73951 34020 ft 499 kts 94°
2026-04-26 22:40 34.36045 -80.69791 33750 ft 499 kts 94°
2026-04-26 22:41 34.35557 -80.65636 33480 ft 500 kts 94°
2026-04-26 22:41 34.35071 -80.61461 33246 ft 500 kts 94°
2026-04-26 22:41 34.34586 -80.57297 32978 ft 501 kts 95°
2026-04-26 22:41 34.34095 -80.53124 32743 ft 501 kts 95°
2026-04-26 22:42 34.33599 -80.48954 32482 ft 501 kts 95°
2026-04-26 22:42 34.33095 -80.44778 32225 ft 501 kts 96°
2026-04-26 22:42 34.32590 -80.40620 31970 ft 499 kts 96°
2026-04-26 22:42 34.32083 -80.36473 31717 ft 497 kts 96°
2026-04-26 22:43 34.31585 -80.32393 31474 ft 495 kts 96°
2026-04-26 22:43 34.31084 -80.28275 31228 ft 493 kts 96°
2026-04-26 22:43 34.30584 -80.24172 30989 ft 492 kts 96°
2026-04-26 22:43 34.30084 -80.20089 30749 ft 490 kts 96°
2026-04-26 22:44 34.29584 -80.16025 30517 ft 488 kts 96°
2026-04-26 22:44 34.29088 -80.11975 30276 ft 486 kts 96°
2026-04-26 22:44 34.28592 -80.07937 30021 ft 484 kts 96°
2026-04-26 22:44 34.28095 -80.03916 29738 ft 482 kts 96°
2026-04-26 22:45 34.27597 -79.99914 29454 ft 480 kts 97°
2026-04-26 22:45 34.27101 -79.95934 29187 ft 478 kts 97°
2026-04-26 22:45 34.26605 -79.91963 28904 ft 475 kts 97°
2026-04-26 22:45 34.26113 -79.88032 28388 ft 472 kts 97°
2026-04-26 22:46 34.25624 -79.84126 27766 ft 469 kts 97°
2026-04-26 22:46 34.25137 -79.80237 27139 ft 466 kts 97°
2026-04-26 22:46 34.24651 -79.76371 26542 ft 464 kts 97°
2026-04-26 22:46 34.24165 -79.72536 25974 ft 460 kts 97°
2026-04-26 22:47 34.23680 -79.68721 25367 ft 458 kts 97°
2026-04-26 22:47 34.23427 -79.64920 24855 ft 451 kts 88°
2026-04-26 22:47 34.23619 -79.61164 24341 ft 446 kts 83°
2026-04-26 22:47 34.23897 -79.57443 23847 ft 442 kts 83°
2026-04-26 22:48 34.24172 -79.53761 23310 ft 439 kts 83°
2026-04-26 22:48 34.24440 -79.50115 22842 ft 433 kts 83°
2026-04-26 22:48 34.24702 -79.46507 22371 ft 428 kts 83°
2026-04-26 22:48 34.24957 -79.42937 21908 ft 424 kts 83°
2026-04-26 22:49 34.25208 -79.39401 21448 ft 420 kts 83°
2026-04-26 22:49 34.25455 -79.35940 20979 ft 417 kts 83°
2026-04-26 22:49 34.25706 -79.32469 20511 ft 414 kts 83°
2026-04-26 22:49 34.25957 -79.29014 20023 ft 411 kts 83°
2026-04-26 22:50 34.26201 -79.25589 19550 ft 408 kts 83°
2026-04-26 22:50 34.26442 -79.22169 19048 ft 406 kts 83°
2026-04-26 22:50 34.26680 -79.18779 18557 ft 404 kts 83°
2026-04-26 22:50 34.26915 -79.15405 18028 ft 401 kts 83°
2026-04-26 22:51 34.27145 -79.12063 17546 ft 397 kts 82°
2026-04-26 22:51 34.27372 -79.08752 17056 ft 393 kts 83°
2026-04-26 22:51 34.27598 -79.05479 16576 ft 389 kts 83°
2026-04-26 22:51 34.27819 -79.02241 16138 ft 380 kts 84°
2026-04-26 22:52 34.28034 -78.99099 15598 ft 371 kts 83°
2026-04-26 22:52 34.28245 -78.96027 15149 ft 361 kts 83°
2026-04-26 22:52 34.28447 -78.93040 14718 ft 353 kts 83°
2026-04-26 22:52 34.28641 -78.90141 14285 ft 352 kts 82°
2026-04-26 22:53 34.28840 -78.87230 13864 ft 351 kts 82°
2026-04-26 22:53 34.29039 -78.84295 13392 ft 349 kts 83°
2026-04-26 22:53 34.29235 -78.81380 12943 ft 346 kts 82°
2026-04-26 22:53 34.29430 -78.78485 12505 ft 343 kts 83°
2026-04-26 22:54 34.29621 -78.75619 12055 ft 341 kts 84°
2026-04-26 22:54 34.29811 -78.72768 11642 ft 339 kts 82°
2026-04-26 22:54 34.30001 -78.69934 11204 ft 337 kts 82°
2026-04-26 22:54 34.30126 -78.67119 10770 ft 336 kts 91°
2026-04-26 22:55 34.29537 -78.64402 10499 ft 333 kts 116°
2026-04-26 22:55 34.28216 -78.62157 10390 ft 323 kts 130°
2026-04-26 22:55 34.26771 -78.60146 10258 ft 312 kts 134°
2026-04-26 22:55 34.25193 -78.58428 9963 ft 300 kts 140°
2026-04-26 22:56 34.23598 -78.56832 9378 ft 297 kts 140°
2026-04-26 22:56 34.21997 -78.55266 8939 ft 294 kts 141°
2026-04-26 22:56 34.20413 -78.53728 8547 ft 290 kts 141°
2026-04-26 22:56 34.18849 -78.52223 8161 ft 286 kts 140°
2026-04-26 22:57 34.17391 -78.50617 7662 ft 283 kts 123°
2026-04-26 22:57 34.16621 -78.48496 7222 ft 273 kts 95°
2026-04-26 22:57 34.16470 -78.46235 6754 ft 270 kts 90°
2026-04-26 22:57 34.16327 -78.43976 6325 ft 268 kts 91°
2026-04-26 22:58 34.16186 -78.41749 5900 ft 265 kts 90°
2026-04-26 22:58 34.16046 -78.39559 5630 ft 255 kts 91°
2026-04-26 22:58 34.15903 -78.37488 5497 ft 240 kts 90°
2026-04-26 22:58 34.15757 -78.35514 5237 ft 232 kts 90°
2026-04-26 22:59 34.15615 -78.33586 4891 ft 230 kts 91°
2026-04-26 22:59 34.15485 -78.31676 4584 ft 227 kts 90°
2026-04-26 22:59 34.15351 -78.29783 4259 ft 226 kts 90°
2026-04-26 22:59 34.15207 -78.27907 3957 ft 223 kts 90°
2026-04-26 23:00 34.15067 -78.26080 3639 ft 221 kts 91°
2026-04-26 23:00 34.14930 -78.24240 3328 ft 219 kts 90°
2026-04-26 23:00 34.14794 -78.22421 3064 ft 216 kts 90°
2026-04-26 23:00 34.14656 -78.20621 2776 ft 214 kts 90°
2026-04-26 23:01 34.14523 -78.18835 2477 ft 212 kts 90°
2026-04-26 23:01 34.14385 -78.17054 2215 ft 208 kts 90°
2026-04-26 23:01 34.14266 -78.15357 2103 ft 196 kts 85°
2026-04-26 23:01 34.14316 -78.13748 2015 ft 189 kts 81°
2026-04-26 23:02 34.14410 -78.12181 2000 ft 187 kts 81°
2026-04-26 23:02 34.14509 -78.10618 2016 ft 186 kts 81°
2026-04-26 23:02 34.14607 -78.09070 2017 ft 184 kts 80°
2026-04-26 23:02 34.14713 -78.07522 2018 ft 184 kts 77°
2026-04-26 23:03 34.15107 -78.06093 2016 ft 178 kts 55°
2026-04-26 23:03 34.15882 -78.04953 2021 ft 176 kts 46°
2026-04-26 23:03 34.16710 -78.03840 2024 ft 178 kts 46°
2026-04-26 23:03 34.17257 -78.03103 2025 ft 177 kts 47°
2026-04-26 23:04 34.18075 -78.01998 2026 ft 176 kts 47°
2026-04-26 23:04 34.18877 -78.00915 2047 ft 165 kts 46°
2026-04-26 23:04 34.19838 -77.99617 1883 ft 148 kts 46°
2026-04-26 23:04 34.20506 -77.98715 1728 ft 140 kts 45°
2026-04-26 23:05 34.20944 -77.98125 1604 ft 139 kts 47°
2026-04-26 23:05 34.21586 -77.97258 1423 ft 139 kts 48°
2026-04-26 23:05 34.22234 -77.96382 1243 ft 140 kts 46°
2026-04-26 23:05 34.22884 -77.95501 1086 ft 141 kts 46°
2026-04-26 23:06 34.23547 -77.94602 867 ft 146 kts 45°
2026-04-26 23:06 34.24219 -77.93694 691 ft 144 kts 46°
2026-04-26 23:06 34.24885 -77.92789 532 ft 143 kts 45°
2026-04-26 23:06 34.25551 -77.91881 299 ft 145 kts 45°
2026-04-26 23:07 34.26219 -77.90981 67 ft 143 kts 45°
2026-04-26 23:07 34.26828 -77.90166 39 ft 114 kts 48°
2026-04-26 23:07 34.27228 -77.89626 38 ft 58 kts 48°
2026-04-26 23:07 34.27424 -77.89361 38 ft 34 kts 47°
2026-04-26 23:08 34.27548 -77.89194 38 ft 22 kts 48°
2026-04-26 23:08 34.27637 -77.89093 39 ft 15 kts 14°
2026-04-26 23:08 34.27715 -77.89151 39 ft 13 kts 317°
2026-04-26 23:08 34.27760 -77.89209 38 ft 8 kts 297°
2026-04-26 23:09 34.27746 -77.89267 40 ft 9 kts 231°
2026-04-26 23:09 34.27692 -77.89341 39 ft 14 kts 229°
2026-04-26 23:09 34.27621 -77.89438 40 ft 15 kts 229°
2026-04-26 23:09 34.27555 -77.89529 39 ft 14 kts 229°
2026-04-26 23:10 34.27486 -77.89623 40 ft 15 kts 228°
2026-04-26 23:10 34.27404 -77.89678 40 ft 13 kts 192°
2026-04-26 23:10 34.27331 -77.89731 39 ft 12 kts 227°
2026-04-26 23:10 34.27278 -77.89806 39 ft 14 kts 229°
2026-04-26 23:11 34.27213 -77.89896 40 ft 14 kts 229°
2026-04-26 23:11 34.27152 -77.89981 40 ft 13 kts 229°
2026-04-26 23:11 34.27080 -77.90084 37 ft 19 kts 231°
2026-04-26 23:11 34.26998 -77.90208 40 ft 18 kts 232°
2026-04-26 23:12 34.26922 -77.90325 39 ft 17 kts 232°
2026-04-26 23:12 34.26849 -77.90435 40 ft 16 kts 230°
2026-04-26 23:12 34.26783 -77.90530 40 ft 14 kts 231°
2026-04-26 23:12 34.26715 -77.90625 39 ft 16 kts 228°
2026-04-26 23:13 34.26646 -77.90718 41 ft 14 kts 228°
2026-04-26 23:13 34.26583 -77.90804 40 ft 13 kts 228°
2026-04-26 23:13 34.26527 -77.90878 39 ft 10 kts 227°
2026-04-26 23:13 34.26530 -77.90926 41 ft 5 kts 328°
2026-04-26 23:14 34.26571 -77.90919 41 ft 7 kts 18°
2026-04-26 23:14 34.26595 -77.90911 41 ft 1 kts 12°
2026-04-26 23:14 34.26598 -77.90911 41 ft 0 kts 12°